Location: Waldport
(44.4270°N, 124.0680°W)
Time: 13:40:19
(UTC-07:00)

ATLAS 3B CENTAUR R/B - Pass Details

Date: 23 June 2018
Orbit: 220 x 5396 km, 28.1° (Epoch: 22 July)

Event Time Altitude Azimuth Distance (km) Brightness Sun altitude
Rises 22:36:05 0° 235° (SW) 8,405 7.4 -12.7°
Reaches altitude 10° 22:44:20 10° 227° (SW) 6,391 6.6 -13.5°
Maximum altitude 22:57:34 27° 180° (S) 3,189 4.7 -14.9°
Enters shadow 23:01:39 20° 146° (SE) 2,873 4.3 -15.3°
